📊 Raw Sensor Data

Showing records 32826 to 32850 of 84,736 total

ID Distance (ft) Battery V Battery A Int Temp (°F) Int Humid (%) Ext Temp (°F) Solar V RSSI SNR Time Stamp
51923 14.7 4.02 -5 60 46 61 0.00 -69 8 09/13/2025 10:45 PM
51922 14.7 3.97 -5 61 46 61 0.00 -72 7 09/13/2025 10:30 PM
51921 14.7 3.97 -5 61 46 62 0.00 -71 8 09/13/2025 10:15 PM
51920 14.7 3.97 -5 62 46 63 0.00 -73 9 09/13/2025 10:00 PM
51919 14.7 3.97 -5 62 47 63 0.00 -72 8 09/13/2025 09:45 PM
51918 14.7 3.97 -5 63 47 63 0.00 -74 8 09/13/2025 09:30 PM
51917 14.7 3.97 -5 63 47 64 0.00 -73 7 09/13/2025 09:15 PM
51916 14.7 3.97 -5 64 48 64 0.00 -73 8 09/13/2025 09:00 PM
51915 14.7 3.97 -5 65 48 65 0.00 -75 8 09/13/2025 08:45 PM
51914 14.7 3.97 -5 66 49 66 0.00 -75 8 09/13/2025 08:30 PM
51913 14.7 4.03 -5 67 50 67 0.00 -73 8 09/13/2025 08:15 PM
51912 14.7 3.98 -5 68 51 67 0.00 -76 8 09/13/2025 08:00 PM
51911 14.7 3.98 -5 69 52 68 0.00 -74 8 09/13/2025 07:45 PM
51910 14.7 4.03 -5 71 54 69 0.60 -76 8 09/13/2025 07:30 PM
51909 14.7 3.97 -10 74 55 70 4.20 -75 8 09/13/2025 07:15 PM
51908 14.7 4.04 0 79 53 74 4.50 -73 7 09/13/2025 07:00 PM
51907 14.8 4.07 10 83 52 77 4.50 -74 8 09/13/2025 06:45 PM
51906 14.7 4.05 0 87 51 79 4.50 -75 8 09/13/2025 06:30 PM
51905 14.8 4.10 48 90 50 81 4.50 -76 8 09/13/2025 06:15 PM
51904 14.8 4.02 0 92 50 83 5.10 -77 8 09/13/2025 06:00 PM
51903 14.9 4.02 5 94 48 85 5.10 -73 8 09/13/2025 05:45 PM
51902 14.9 4.02 0 95 48 85 5.10 -75 8 09/13/2025 05:30 PM
51901 14.9 4.05 5 97 47 86 5.10 -75 7 09/13/2025 05:15 PM
51900 14.9 4.10 0 97 46 87 5.10 -74 8 09/13/2025 05:00 PM
51899 14.9 4.02 0 98 46 87 5.10 -75 8 09/13/2025 04:45 PM